• Join FlightAware (Why Join?)
  • Login
  • US Flag 
01:26PM EDT


 

Airport Tracker/Info


-or-


 

Live Flight TrackerFlight Track Log ✈ N6ZQ ✈ 19-Oct-2013 ✈ KGNV - KRMN

Flight Track Log - Related Links

Times and Time Zones

All times are in EDT time to prevent confusion due to time zone crossing. See the N6ZQ flight status page for this flight to view local times or setup timezone preferences in your user account.

Time Position Orientation Groundspeed Altitude Reporting Facility
EDT Latitude Longitude Course Direction KTS MPH feet Rate Location/Type
09:32AM 29.6867 -82.2900 332° Northwest 121 139 300  Level Jacksonville Center
09:33AM 29.7181 -82.3089 332° Northwest 150 173 1,300 840 Climbing Jacksonville Center
09:34AM 29.7536 -82.2992 13° North 182 209 1,900 900 Climbing Jacksonville Center
09:35AM 29.8058 -82.2847 13° North 168 193 3,100 1,020 Climbing Jacksonville Center
09:36AM 29.8494 -82.2675 19° North 164 189 4,200 1,080 Climbing Jacksonville Center
09:37AM 29.8911 -82.2481 22° Northeast 156 180 5,300 840 Climbing Jacksonville Center
09:38AM 29.9369 -82.2167 31° Northeast 175 201 6,000 840 Climbing Jacksonville Center
09:39AM 29.9806 -82.1828 34° Northeast 179 206 7,100 1,020 Climbing Jacksonville Center
09:40AM 30.0139 -82.1608 30° Northeast 170 196 7,900 840 Climbing Jacksonville Center
09:41AM 30.0556 -82.1367 27° Northeast 163 188 8,700 780 Climbing Jacksonville Center
09:42AM 30.1014 -82.1097 27° Northeast 183 211 9,500 600 Climbing Jacksonville Center
09:43AM 30.1469 -82.0806 29° Northeast 183 211 10,000 540 Climbing Jacksonville Center
09:44AM 30.1906 -82.0492 32° Northeast 190 219 10,600 480 Climbing Jacksonville Center
09:45AM 30.2406 -82.0150 31° Northeast 197 227 11,000 180 Climbing Jacksonville Center
09:46AM 30.2925 -81.9783 31° Northeast 215 247 11,000  Level Jacksonville Center
09:47AM 30.3569 -81.9344 30° Northeast 225 259 11,000  Level Jacksonville Center
09:49AM 30.4131 -81.8953 31° Northeast 224 258 11,000  Level Jacksonville Center
09:49AM 30.4544 -81.8661 31° Northeast 223 257 11,000  Level Jacksonville Center
09:50AM 30.5083 -81.8292 31° Northeast 220 253 11,000  Level Jacksonville Center
09:51AM 30.5667 -81.7853 33° Northeast 222 255 11,000  Level Jacksonville Center
09:52AM 30.6142 -81.7533 30° Northeast 224 258 11,000  Level Jacksonville Center
09:53AM 30.6683 -81.7139 32° Northeast 225 259 11,000  Level Jacksonville Center
09:55AM 30.7386 -81.6672 30° Northeast 225 259 11,000 -60 Level Jacksonville Center
09:56AM 30.8114 -81.6156 31° Northeast 228 262 10,900 -60 Descending Jacksonville Center
09:57AM 30.8672 -81.5758 31° Northeast 228 262 10,900  Level Jacksonville Center
09:58AM 30.9192 -81.5364 33° Northeast 228 262 10,900  Level Jacksonville Center
09:59AM 30.9731 -81.4994 30° Northeast 228 262 10,900  Level Jacksonville Center
10:00AM 31.0269 -81.4622 31° Northeast 228 262 10,900  Level Jacksonville Center
10:01AM 31.0872 -81.4394 18° North 222 255 10,900  Level Jacksonville Center
10:02AM 31.1497 -81.4264 10° North 217 250 10,900  Level Jacksonville Center
10:03AM 31.2100 -81.4133 10° North 223 257 10,900  Level Jacksonville Center
10:04AM 31.2725 -81.4000 10° North 223 257 10,900  Level Jacksonville Center
10:05AM 31.3350 -81.3844 12° North 218 251 10,900  Level Jacksonville Center
10:06AM 31.4017 -81.3689 11° North 223 257 11,000  Climbing Jacksonville Center
10:07AM 31.4597 -81.3533 13° North 223 257 11,000  Level Jacksonville Center
10:08AM 31.5264 -81.3400 10° North 223 257 11,000  Level Jacksonville Center
10:09AM 31.5828 -81.3269 11° North 223 257 11,000  Level Jacksonville Center
10:10AM 31.6494 -81.3136 10° North 223 257 11,000  Level Jacksonville Center
10:11AM 31.7097 -81.2978 13° North 218 251 11,000  Level Jacksonville Center
10:12AM 31.7658 -81.2872 North 224 258 11,000  Level Jacksonville Center
10:13AM 31.8347 -81.2714 11° North 223 257 11,000 -60 Level Jacksonville Center
10:14AM 31.8928 -81.2556 13° North 217 250 10,900 -60 Descending Jacksonville Center
10:15AM 31.9575 -81.2422 10° North 217 250 10,900  Level Jacksonville Center
10:16AM 32.0178 -81.2289 11° North 217 250 10,900  Level Jacksonville Center
10:17AM 32.0803 -81.2131 12° North 222 255 10,900  Level Jacksonville Center
10:18AM 32.1447 -81.1997 10° North 222 255 10,900  Level Jacksonville Center
10:19AM 32.2028 -81.1692 24° Northeast 229 264 10,900  Level Jacksonville Center
10:20AM 32.2567 -81.1336 29° Northeast 229 264 10,900  Level Jacksonville Center
10:21AM 32.3147 -81.1006 26° Northeast 229 264 10,900  Level Jacksonville Center
10:22AM 32.3725 -81.0675 26° Northeast 219 252 10,900  Level Jacksonville Center
10:23AM 32.4286 -81.0342 27° Northeast 219 252 10,900  Level Jacksonville Center
10:24AM 32.4864 -81.0011 26° Northeast 224 258 10,900  Level Jacksonville Center
10:25AM 32.5444 -80.9703 24° Northeast 219 252 10,900  Level Jacksonville Center
10:26AM 32.6003 -80.9347 28° Northeast 219 252 10,900  Level Jacksonville Center
10:27AM 32.6561 -80.9039 25° Northeast 219 252 10,900  Level Jacksonville Center
10:28AM 32.7119 -80.8681 28° Northeast 219 252 10,900  Level Jacksonville Center
10:29AM 32.7697 -80.8347 26° Northeast 219 252 10,900  Level Jacksonville Center
10:30AM 32.8256 -80.8011 27° Northeast 219 252 10,900  Level Jacksonville Center
10:31AM 32.8814 -80.7678 27° Northeast 219 252 10,900  Level Jacksonville Center
10:32AM 32.9394 -80.7342 26° Northeast 219 252 10,900  Level Jacksonville Center
10:33AM 32.9972 -80.7006 26° Northeast 219 252 10,900  Level Jacksonville Center
10:34AM 33.0508 -80.6672 28° Northeast 219 252 10,900  Level Jacksonville Center
10:35AM 33.1086 -80.6333 26° Northeast 219 252 10,900  Level Jacksonville Center
10:36AM 33.1644 -80.5997 27° Northeast 219 252 10,900  Level Jacksonville Center
10:37AM 33.2222 -80.5658 26° Northeast 219 252 10,900  Level Jacksonville Center
10:38AM 33.2800 -80.5322 26° Northeast 219 252 10,900  Level Jacksonville Center
10:39AM 33.3378 -80.4958 28° Northeast 219 252 10,900  Level Jacksonville Center
10:40AM 33.3875 -80.4672 26° Northeast 219 252 10,900  Level Jacksonville Center
10:41AM 33.4453 -80.4331 26° Northeast 219 252 10,900  Level Jacksonville Center
10:42AM 33.5031 -80.3992 26° Northeast 219 252 10,900  Level Jacksonville Center
10:43AM 33.5586 -80.3628 29° Northeast 219 252 10,900  Level Jacksonville Center
10:44AM 33.6164 -80.3286 26° Northeast 219 252 10,900  Level Jacksonville Center
10:45AM 33.6742 -80.2944 26° Northeast 219 252 10,900  Level Jacksonville Center
10:46AM 33.7297 -80.2606 27° Northeast 219 252 10,900  Level Jacksonville Center
10:47AM 33.7894 -80.2261 26° Northeast 219 252 10,900  Level Jacksonville Center
10:48AM 33.8450 -80.1894 29° Northeast 219 252 10,900  Level Jacksonville Center
10:49AM 33.9028 -80.1553 26° Northeast 219 252 10,900  Level Jacksonville Center
10:50AM 33.9625 -80.1183 27° Northeast 224 258 10,900  Level Jacksonville Center
10:51AM 34.0200 -80.0839 26° Northeast 224 258 10,900  Level Jacksonville Center
10:52AM 34.0778 -80.0494 26° Northeast 224 258 10,900  Level Jacksonville Center
10:53AM 34.1353 -80.0125 28° Northeast 224 258 10,900  Level Jacksonville Center
10:54AM 34.1928 -79.9753 28° Northeast 224 258 10,900  Level Jacksonville Center
10:55AM 34.2525 -79.9433 24° Northeast 224 258 10,900  Level Jacksonville Center
10:56AM 34.3081 -79.9036 31° Northeast 224 258 10,900  Level Jacksonville Center
10:57AM 34.3697 -79.8714 23° Northeast 224 258 10,900  Level Jacksonville Center
10:58AM 34.4253 -79.8342 29° Northeast 224 258 10,900  Level Jacksonville Center
10:59AM 34.4847 -79.7969 27° Northeast 234 269 10,900  Level Jacksonville Center
11:02AM 34.6353 -79.7014 28° Northeast 243 280 11,000  Climbing Washington Center
11:03AM 34.6928 -79.6689 25° Northeast 238 274 11,000  Level Washington Center
11:04AM 34.7525 -79.6314 27° Northeast 238 274 11,000  Level Washington Center
11:05AM 34.8119 -79.5964 26° Northeast 233 268 11,000  Level Washington Center
11:06AM 34.8753 -79.5792 13° North 222 255 11,000  Level Washington Center
11:07AM 34.9364 -79.5619 13° North 222 255 11,000  Level Washington Center
11:08AM 34.9994 -79.5500 North 222 255 11,000  Level Washington Center
11:09AM 35.0625 -79.5328 13° North 222 255 11,000  Level Washington Center
11:10AM 35.1256 -79.5156 13° North 222 255 11,000  Level Washington Center
11:11AM 35.1853 -79.4803 26° Northeast 229 264 11,000  Level Washington Center
11:12AM 35.2450 -79.4400 29° Northeast 245 282 11,000  Level Washington Center
11:13AM 35.3025 -79.3994 30° Northeast 245 282 11,000  Level Washington Center
11:14AM 35.3561 -79.3611 30° Northeast 245 282 11,000  Level Washington Center
11:14AM 35.4069 -79.3306 26° Northeast 245 282 11,000  Level Washington Center
11:15AM 35.4242 -79.3186 29° Northeast 245 282 11,000  Level Washington Center
11:15AM 35.4306 -79.3111 44° Northeast 245 282 11,000  Level Washington Center
11:16AM 35.4753 -79.2828 27° Northeast 245 282 11,000  Level Washington Center
11:16AM 35.5031 -79.2636 29° Northeast 245 282 11,000  Level Washington Center
11:17AM 35.5350 -79.2419 29° Northeast 245 282 11,000  Level Washington Center
11:17AM 35.5606 -79.2228 31° Northeast 248 285 11,000  Level Washington Center
11:18AM 35.6031 -79.1939 29° Northeast 245 282 11,000  Level Washington Center
11:18AM 35.6222 -79.1847 21° North 247 284 11,000  Level Washington Center
11:19AM 35.6608 -79.1533 33° Northeast 245 282 11,000  Level Washington Center
11:19AM 35.6797 -79.1439 22° Northeast 245 282 11,000  Level Washington Center
11:20AM 35.7225 -79.1125 31° Northeast 245 282 11,000  Level Washington Center
11:20AM 35.7417 -79.1006 27° Northeast 244 281 11,000  Level Washington Center
11:21AM 35.7756 -79.0764 30° Northeast 245 282 11,000  Level Washington Center
11:21AM 35.8033 -79.0572 29° Northeast 245 282 11,000  Level Washington Center
11:22AM 35.8331 -79.0378 28° Northeast 245 282 11,000  Level Washington Center
11:22AM 35.8650 -79.0164 28° Northeast 244 281 11,000  Level Washington Center
11:23AM 35.8928 -78.9944 33° Northeast 245 282 11,000  Level Washington Center
11:23AM 35.9228 -78.9725 31° Northeast 245 282 11,000  Level Washington Center
11:24AM 35.9522 -78.9558 25° Northeast 245 282 11,000  Level Washington Center
11:24AM 35.9822 -78.9314 33° Northeast 248 285 11,000  Level Washington Center
11:25AM 36.0567 -78.8808 29° Northeast 247 284 11,000  Level Washington Center
11:27AM 36.1544 -78.8103 30° Northeast 270 311 11,000  Level Washington Center
11:28AM 36.2142 -78.7689 29° Northeast 257 296 11,000  Level Washington Center
11:29AM 36.2778 -78.7225 30° Northeast 243 280 11,000  Level Washington Center
11:30AM 36.3289 -78.6858 30° Northeast 243 280 11,000  Level Washington Center
11:31AM 36.3947 -78.6419 28° Northeast 238 274 11,000  Level Washington Center
11:32AM 36.4519 -78.6028 29° Northeast 238 274 11,000  Level Washington Center
11:33AM 36.5114 -78.5639 28° Northeast 238 274 11,000  Level Washington Center
11:34AM 36.5667 -78.5219 31° Northeast 233 268 11,000  Level Washington Center
11:35AM 36.6239 -78.4853 27° Northeast 233 268 11,000  Level Washington Center
11:36AM 36.6708 -78.4456 34° Northeast 233 268 11,000  Level Washington Center
11:37AM 36.7344 -78.4014 29° Northeast 233 268 11,000  Level Washington Center
11:38AM 36.7917 -78.3594 30° Northeast 233 268 11,000  Level Washington Center
11:39AM 36.8469 -78.3197 30° Northeast 233 268 11,000  Level Washington Center
11:40AM 36.9064 -78.2778 29° Northeast 233 268 11,000  Level Washington Center
11:41AM 36.9656 -78.2381 28° Northeast 233 268 11,000  Level Washington Center
11:42AM 37.0292 -78.1908 31° Northeast 233 268 11,000  Level Washington Center
11:43AM 37.0864 -78.1511 29° Northeast 233 268 11,000  Level Washington Center
11:44AM 37.1353 -78.1136 31° Northeast 228 262 11,000  Level Washington Center
11:45AM 37.1922 -78.0739 29° Northeast 233 268 11,000  Level Washington Center
11:46AM 37.2453 -78.0339 31° Northeast 233 268 11,000 -60 Level Washington Center
11:47AM 37.3131 -77.9864 29° Northeast 233 268 10,900 -60 Descending Washington Center
11:48AM 37.3681 -77.9464 30° Northeast 233 268 10,900 -300 Level Washington Center
11:49AM 37.4294 -77.9011 30° Northeast 233 268 10,400 -600 Descending Washington Center
11:50AM 37.4908 -77.8558 30° Northeast 238 274 9,800 -660 Descending Washington Center
11:51AM 37.5519 -77.8131 29° Northeast 238 274 9,200 -660 Descending Washington Center
11:52AM 37.6153 -77.7783 23° Northeast 244 281 8,600 -660 Descending Washington Center
11:53AM 37.6742 -77.7433 25° Northeast 244 281 7,900 -660 Descending Washington Center
11:54AM 37.7356 -77.7056 26° Northeast 239 275 7,300 -600 Descending Washington Center
11:55AM 37.7944 -77.6731 24° Northeast 239 275 6,700 -660 Descending Washington Center
11:56AM 37.8556 -77.6353 26° Northeast 239 275 6,100 -600 Descending Washington Center
11:57AM 37.9167 -77.6000 24° Northeast 239 275 5,600 -540 Descending Washington Center
11:59AM 38.0167 -77.5500 21° North 228 262 4,700 -540 Descending Potomac TRACON
12:00PM 38.0667 -77.5167 28° Northeast 215 247 4,200 -360 Descending Potomac TRACON
12:01PM 38.1167 -77.4833 28° Northeast 206 237 4,000 -120 Descending Potomac TRACON
12:02PM 38.1667 -77.4500 28° Northeast 190 219 4,000  Level Potomac TRACON
12:03PM 38.1833 -77.4000 67° East 186 214 4,000 -300 Level Potomac TRACON
12:04PM 38.2000 -77.3333 72° East 179 206 3,400 -540 Descending Potomac TRACON
12:05PM 38.2333 -77.2833 50° Northeast 190 219 3,000 -240 Descending Potomac TRACON
12:06PM 38.2667 -77.3000 339° North 160 184 3,000 -60 Level Potomac TRACON
12:07PM 38.2833 -77.3333 303° West 154 177 2,900 -480 Descending Potomac TRACON
12:08PM 38.3167 -77.3667 322° Northwest 153 176 2,100 -840 Descending Potomac TRACON